HST 1 20580U 90037B 26133.19372359 .00004351 00000+0 13638-3 0 9994 2 20580 28.4756 319.6625 0002153 105.4031 254.6803 15.30366798783202 POLAR 1 23802U 96013A 26133.37683543 .00000067 00000+0 00000+0 0 9999 2 23802 79.8174 227.4568 6435836 210.2766 87.7400 1.29846022144409 SWAS 1 25560U 98071A 26133.49092399 .00001903 00000+0 12541-3 0 9991 2 25560 69.8957 316.9780 0008008 293.3458 66.6863 15.09366865492030 CXO 1 25867U 99040B 26134.99575802 .00000704 00000+0 00000+0 0 9990 2 25867 55.6591 117.5844 7896929 310.4386 359.9851 0.37808652 17193 XMM-NEWTON 1 25989U 99066A 26135.43881895 .00000085 00000+0 00000+0 0 9997 2 25989 64.6604 283.4024 4685414 65.5061 0.1256 0.50124669 22831 TERRA 1 25994U 99068A 26133.51515676 .00000238 00000+0 57550-4 0 9990 2 25994 97.9480 184.4317 0002089 17.1515 112.9130 14.61074242404540 CLUSTER II-FM7 (SAMBA) 1 26410U 00041A 26134.67063255 .00003081 00000+0 00000+0 0 9998 2 26410 149.8135 45.0185 9015871 261.7544 0.5684 0.44846614 20168 CLUSTER II-FM8 (TANGO) 1 26464U 00045B 26134.64554359 .00003165 00000+0 00000+0 0 9991 2 26464 150.0698 45.9942 9019761 262.5889 0.5477 0.44404932 20150 ODIN 1 26702U 01007A 26133.11160706 .00068097 00000+0 66050-3 0 9991 2 26702 97.3930 172.0700 0002177 197.0063 163.1124 15.66144874383895 TIMED 1 26998U 01055B 26133.48416325 .00000749 00000+0 71757-4 0 9993 2 26998 74.0670 304.8889 0000936 183.2686 176.8493 14.95206015325632 CORIOLIS 1 27640U 03001A 26133.45782133 .00000069 00000+0 53087-4 0 9992 2 27640 98.7136 140.8722 0013139 316.7265 43.2879 14.19934965209292 SORCE 1 27651U 03004A 26133.33630080 .00001674 00000+0 13126-3 0 9999 2 27651 39.9905 100.4820 0016925 166.1817 193.9443 15.03511780266655 MOST 1 27843U 03031D 26133.29442998 .00000041 00000+0 38990-4 0 9990 2 27843 98.7056 141.5066 0009776 0.3260 359.7922 14.21314979185758 SCISAT 1 1 27858U 03036A 26133.37989130 .00000318 00000+0 45359-4 0 9998 2 27858 73.9303 240.4957 0008311 306.8797 53.1617 14.81409689226295 SWIFT 1 28485U 04047A 26133.22822509 .00030754 00000+0 28990-3 0 9996 2 28485 20.5522 93.8497 0002779 192.4636 167.5740 15.65020909181378 HINODE (SOLAR-B) 1 29479U 06041A 26133.30125160 .00000417 00000+0 80097-4 0 9994 2 29479 98.0564 149.9673 0018424 42.7235 317.5399 14.68570628 49755 SHIJIAN-6 02A (SJ-6 02A) 1 29505U 06046A 26133.45551387 .00005085 00000+0 26431-3 0 9996 2 29505 97.6395 174.2686 0001555 241.1741 118.9336 15.16530342 67006 SHIJIAN-6 02B (SJ-6 02B) 1 29506U 06046B 26133.42204978 .00001428 00000+0 11570-3 0 9990 2 29506 97.7162 162.6967 0011618 172.7535 187.3860 15.01275421 65529 FGRST (GLAST) 1 33053U 08029A 26133.19533597 .00001888 00000+0 62769-4 0 9998 2 33053 25.5814 87.4061 0007882 273.4128 86.5508 15.23744834990493 SDO 1 36395U 10005A 26133.40398793 -.00000047 00000+0 00000+0 0 9990 2 36395 34.5804 86.8680 0001103 44.9806 142.9287 1.00271849 59711 CRYOSAT 2 1 36508U 10013A 26133.48358391 .00000047 00000+0 10948-4 0 9999 2 36508 92.0315 268.8739 0002606 86.9572 273.1933 14.51898206853040 X-SAT 1 37389U 11015C 26133.47373656 .00000352 00000+0 16696-3 0 9994 2 37389 98.3492 112.1556 0015349 84.8499 275.4433 14.25196796782737 GCOM-W1 (SHIZUKU) 1 38337U 12025A 26133.36425890 .00000272 00000+0 70399-4 0 9998 2 38337 98.2009 74.4515 0001599 99.8589 12.2552 14.57090363743966 NUSTAR 1 38358U 12031A 26133.58336806 .00003885 00000+0 18876-3 0 9994 2 38358 6.0267 293.6416 0008701 311.1612 328.6281 15.08462344 1303 NEOSSAT 1 39089U 13009D 26133.50550495 .00000089 00000+0 45621-4 0 9998 2 39089 98.4173 314.3644 0010848 356.5013 3.6096 14.35814066691763 BRITE-AUSTRIA 1 39091U 13009F 26133.45170535 .00000103 00000+0 49498-4 0 9991 2 39091 98.3988 313.7488 0009899 350.9654 9.1353 14.36527680692066 IRIS 1 39197U 13033A 26133.28134747 .00000655 00000+0 81218-4 0 9999 2 39197 97.9353 332.6659 0025861 74.1768 286.2295 14.85811073695198 HISAKI (SPRINT-A) 1 39253U 13049A 26133.44044880 .00000110 00000+0 63005-4 0 9995 2 39253 29.7206 36.6616 0136632 95.2487 266.3691 13.55540123626707 CASSIOPE 1 39265U 13055A 26133.48851001 .00020994 -63529-6 23898-3 0 9990 2 39265 80.9125 108.7611 0301065 178.7163 181.4919 15.22599154662385 STSAT-3 1 39422U 13066G 26133.48520832 .00000834 00000+0 67233-4 0 9992 2 39422 97.6158 103.9541 0010283 140.9003 219.2967 15.02527006678995 SWARM B 1 39451U 13067A 26133.49923772 .00002027 00000+0 72194-4 0 9994 2 39451 87.7455 352.8544 0002749 99.8937 260.2623 15.28339988677948 SWARM A 1 39452U 13067B 26133.49829174 .00007478 00000+0 13171-3 0 9990 2 39452 87.3328 69.1158 0003471 86.3774 273.7884 15.50224898700871 SWARM C 1 39453U 13067C 26133.49821235 .00007514 00000+0 13233-3 0 9991 2 39453 87.3328 67.6970 0003479 86.0745 274.0913 15.50226511700837 BRITE-CA1 (TORONTO) 1 40020U 14033L 26133.31773297 .00000428 00000+0 72027-4 0 9996 2 40020 97.9688 262.8994 0079262 29.4987 331.0659 14.72627770637084 OCO 2 1 40059U 14035A 26133.47697122 .00000220 00000+0 58990-4 0 9992 2 40059 98.2004 75.3030 0001360 88.7479 271.3875 14.57080998630995 BRITE-PL2 (HEWELIUSZ) 1 40119U 14049B 26133.29015190 .00000711 00000+0 71365-4 0 9999 2 40119 97.9058 245.0324 0013130 221.1649 138.8581 14.94457930636238 MMS 1 1 40482U 15011A 26133.58336806 .00000065 00000+0 00000+0 0 9999 2 40482 71.7864 349.2240 8353314 166.8237 8.0212 0.28262605 1349 MMS 2 1 40483U 15011B 26133.50002315 .00000062 00000+0 00000+0 0 9994 2 40483 71.7922 349.2167 8356636 166.8124 359.5277 0.28237901 1344 MMS 3 1 40484U 15011C 26133.50002315 .00000062 00000+0 00000+0 0 9995 2 40484 71.7949 349.2218 8355677 166.8068 359.5272 0.28241487 1341 MMS 4 1 40485U 15011D 26133.50002315 .00000062 00000+0 00000+0 0 9996 2 40485 71.7918 349.2169 8355441 166.8146 359.5156 0.28237541 1346 ASTROSAT 1 40930U 15052A 26130.01374999 .00001330 00000+0 80390-4 0 9993 2 40930 5.9973 70.0971 0008319 213.0571 146.9037 14.82440518574154 DAMPE 1 41173U 15078A 26133.45685598 .00001118 00000+0 40263-4 0 9991 2 41173 97.4570 138.7557 0011342 191.1215 168.9776 15.30696159579232 PISAT 1 41784U 16059B 26133.40433831 .00000584 00000+0 10741-3 0 9998 2 41784 97.8183 135.3537 0027981 319.0795 40.8310 14.68920086514639 HXMT (HUIYAN) 1 42758U 17034A 26133.53084939 .00003047 00000+0 15619-3 0 9995 2 42758 43.0153 15.9681 0032892 284.7374 74.9831 15.18150435492395 FLYING LAPTOP 1 42831U 17042G 26133.52065221 .00002214 00000+0 17784-3 0 9998 2 42831 97.4531 290.4262 0017707 240.3893 119.5568 15.00910890481253 ZHANGHENG 1-01 (CSES-1) 1 43194U 18015C 26133.53045771 .00004383 00000+0 20084-3 0 9997 2 43194 97.6841 298.5053 0016911 28.7367 331.4796 15.20901171459379 SALSAT 1 46495U 20068K 26133.47213522 .00005117 00000+0 18286-3 0 9996 2 46495 97.8857 134.4391 0011494 69.4253 290.8218 15.29270931310055 IXPE 1 49954U 21121A 26133.50002315 .00007773 00000+0 41030-3 0 9993 2 49954 0.2288 219.8864 0006754 273.4489 307.9198 15.09924592 5929